Location: Bun Machan
(52.1403°N, 7.3744°W)
Time: 08:02:55
(UTC+00:00)

Meteor 1-29 - Pass Details

Date: 14 July 2020
Orbit: 440 x 459 km, 97.7° (Epoch: 04 August)

Event Time Altitude Azimuth Distance (km) Brightness Sun altitude
Rises 00:53:54 0° 22° (NNE) 2,465 8.1 -16.1°
Reaches altitude 10° 00:56:07 10° 33° (NNE) 1,591 6.6 -16.1°
Maximum altitude 00:59:10 30° 97° (E) 839 4.2 -16.0°
Enters shadow 01:00:22 24° 134° (SE) 993 4.3 -16.0°
